This is the latest recevied weather packets stored in our database for station/object KD8OZS. If no packets are shown the sender has not sent any weather packets the latest 10 day(s).
| Time | Temp. | Humidity | Pressure | Rain* | Wind** | Luminosity | Snow |
|---|---|---|---|---|---|---|---|
| 1778159350 | 10.56° C | 70% | 1006.1 hPa | 0 mm | - | 531 W/m² | - |
| 1778159047 | 10° C | 72% | 1006.1 hPa | 0 mm | - | 486 W/m² | - |
| 1778158746 | 10.56° C | 71% | 1006.1 hPa | 0 mm | - | 383 W/m² | - |
| 1778158443 | 9.44° C | 72% | 1006.1 hPa | 0 mm | - | 412 W/m² | - |
| 1778158140 | 9.44° C | 75% | 1006.1 hPa | 0 mm | - | 388 W/m² | - |
| 1778157836 | 8.89° C | 75% | 1006 hPa | 0 mm | - | 357 W/m² | - |
| 1778157535 | 8.33° C | 78% | 1006.1 hPa | 0 mm | - | 270 W/m² | - |
| 1778157232 | 7.78° C | 78% | 1006.1 hPa | 0 mm | - | 262 W/m² | - |
| 1778156928 | 8.33° C | 80% | 1006.1 hPa | 0 mm | - | 208 W/m² | - |
| 1778156623 | 7.78° C | 83% | 1006.3 hPa | 0 mm | - | 151 W/m² | - |
| 1778156320 | 6.67° C | 86% | 1006.1 hPa | 0 mm | - | 145 W/m² | - |
| 1778156015 | 6.11° C | 91% | 1006.1 hPa | 0 mm | - | 130 W/m² | - |
| 1778155712 | 5.56° C | 95% | 1006 hPa | 0 mm | - | 149 W/m² | - |
| 1778155409 | 5.56° C | 97% | 1005.9 hPa | 0 mm | - | 137 W/m² | - |
| 1778155105 | 5.56° C | 98% | 1006 hPa | 0 mm | - | 119 W/m² | - |
| 1778153891 | 3.89° C | 98% | 1006.1 hPa | 0 mm | - | 82 W/m² | - |
| 1778153588 | 3.33° C | 98% | 1006.2 hPa | 0 mm | - | 73 W/m² | - |
| 1778153286 | 2.78° C | 99% | 1006.1 hPa | 0 mm | - | 63 W/m² | - |
| 1778152982 | 2.22° C | 99% | 1005.9 hPa | 0 mm | - | 46 W/m² | - |
| 1778152681 | 1.67° C | 99% | 1005.9 hPa | 0 mm | - | 31 W/m² | - |
| 1778152376 | 1.67° C | 99% | 1005.9 hPa | 0 mm | - | 27 W/m² | - |
| 1778152073 | 1.11° C | 99% | 1005.8 hPa | 0 mm | - | 25 W/m² | - |
| 1778151769 | 1.11° C | 99% | 1005.8 hPa | 0 mm | - | 22 W/m² | - |
| 1778151466 | 1.11° C | 99% | 1005.8 hPa | 0 mm | - | 20 W/m² | - |
| 1778151162 | 1.11° C | 98% | 1005.5 hPa | 0 mm | - | 17 W/m² | - |
* Rain latest hour (hover to see other rain measurements)
** Current wind speed in m/s (hover to see current wind gust speed)